STARLINK-1666, 46357

Orbit data source: Space-Track

STARLINK-1666, 46357 is a payload satellite owned by SpaceX/Seattle (US) in LEO that was launched on Thu, 03 Sep 2020 UTC via an FALCON 9 launch vehicle from the Air Force Eastern Test Range (AFETR). Payload-class satellites include a variety of spacecraft equipped with specific instruments for various scientific and technological missions. These include communications satellites like Starlink; space stations such as the ISS; scientific satellites like the Hubble; Earth observation satellites from companies like Planet Labs, Umbra, and HawkEye 360; GPS; miniature CubeSats for education and research; and military/defense satellites.

Loading next visibility...
Identifier
46357, 2020-062AJ
Orbit
LEO
Country
Flag of USUS
Related business
Manufacturer
SpaceX/Seattle
Mission
Partially operational Commercial Communications
Bus & Motor
STARLINK, Unknown motor
Mass
260 kg wet, ~248 kg dry
Launch date (UTC)
2020-09-03 (6 years ago)
Launch vehicle
FALCON 9
Launch site
Air Force Eastern Test Range (AFETR)
Object type
Payload
Rocket body
Debris
Shape & HBR
Box + 1 Pan, 10.1 m
Radar Cross Section
13.562 m², Large (>1 m²)

Expand to show TLE details & history
Last TLE update: 4 hours ago

TLE from 4 hours ago
0 STARLINK-1666
1 46357U 20062AJ  26166.66667824  .00121169  00000-0  53607-3 0  9995
2 46357  53.0322 209.8056 0007544   9.0565  92.1537 15.83563812  5966
Epoch: 2026-06-15T16:00Z
TLE epoch observation values (Epoch: 2026-06-15T16:00:00.999Z)
Latitude
51.73596°
Longitude
174.24714°
Altitude
326.743 km
Speed
7.719 km/s
True Right ascension
21h 12m 48s
True Declination
51° 33' 28"
Sunlit
Object was in daylight at epoch
Visualization orbit readout
Latitude
Unknown
Longitude
Unknown
Altitude
Unknown
Speed
Unknown
Apparent Right ascension
Unknown
Apparent Declination
Unknown
Sunlit
N/A
Visualization observer readout
Local Sidereal Time
07:00:35
Azimuth
Unknown
Elevation
Unknown
Doppler factor
Unknown
Orbital elements
Apogee altitude
325.709 km
Perigee altitude
315.601 km
Semi-major axis
6,698.792 km
Eccentricity
0.00075
Inclination
53.0322°
RAAN
209.8056°
Arg. of periapsis
9.0565°
True anomaly
92.24008°
Mean anomaly
92.1537°
Eccentric anomaly
92.19689°
Mean motion
3.95866 °/min
Orbital period
90.94 mins
BSTAR
0.00053607
Loading maneuver chart data...
Computing Atmospheric mass density...

Documentation

Showing up to 5 results
|